Indianapolis, IN

4:41 PM EDT on October 21, 2019 (GMT -0400)
Indianapolis International

Weather History for KIND - June, 2019

Change the Weather History Date:

Saturday, June 8, 2019

  Actual Average Record
Temperature  
Mean Temperature 73 °F 70 °F  
Max Temperature 79 °F 80 °F 95 °F (1933)
Min Temperature 66 °F 60 °F 44 °F (1913)
Degree Days  
Heating Degree Days 0 1  
Month to date heating degree days 0 10  
Since 1 June heating degree days 0 10  
Since 1 July heating degree days 5376 5372  
Cooling Degree Days 8 6  
Month to date cooling degree days 51 42  
Year to date cooling degree days 162 126  
Since 1 June cooling degree days 51 42  
Growing Degree Days 22 (Base 50)    
Moisture  
Dew Point 60 °F    
Average Humidity 66    
Maximum Humidity 79    
Minimum Humidity 53    
Precipitation  
Precipitation T in 0.15 in 2.14 in (1889)
Month to date precipitation 0.57 1.16  
Year to date precipitation 22.21 18.56  
Snow  
Snow 0.00 in 0.00 in 0.00 in ()
Month to date snowfall 0.0 0.0  
Since 1 June snowfall 0.0 0.0  
Since 1 July snowfall 19.4 25.9  
Snow Depth 0.00 in    
Sea Level Pressure  
Sea Level Pressure 29.87 in    
Wind  
Wind Speed 15 mph (East)    
Max Wind Speed 24 mph    
Max Gust Speed 31 mph    
Visibility 10 miles    
Events Rain    
T = Trace of Precipitation, MM = Missing Value Source: NWS Daily Summary

Daily Weather History Graph

Daily Weather History Graph

Search for Another Location

Airport or City:

Astronomy

Jun. 08, 2019 Rise Set
Actual Time 6:17 AM EDT 9:11 PM EDT
Civil Twilight 5:44 AM EDT 9:43 PM EDT
Nautical Twilight 5:04 AM EDT 10:24 PM EDT
Astronomical Twilight 4:17 AM EDT 11:11 PM EDT
Moon 11:43 AM EDT (6/8) 1:13 AM EDT (6/8)
Length of Visible Light 15h 58m
Length of Day
14h 54m
Waxing Crescent, 32% of the Moon is Illuminated
Jun 8
Waxing Crescent
Jun 10
First Quarter
Jun 17
Full
Jun 25
Last Quarter
Jul 2
New

Hourly Weather History & Observations

Time (EDT) Temp. Dew Point Humidity Pressure Visibility Wind Dir Wind Speed Gust Speed Precip Events Conditions
12:54 AM 69.1 °F 54.0 °F 58% 29.88 in 10.0 mi NE 15.0 mph 23.0 mph N/A   Overcast
1:54 AM 69.1 °F 52.0 °F 54% 29.86 in 10.0 mi NE 12.7 mph - N/A   Overcast
2:54 AM 69.1 °F 52.0 °F 54% 29.86 in 10.0 mi NE 15.0 mph 23.0 mph N/A   Overcast
3:54 AM 68.0 °F 52.0 °F 56% 29.85 in 10.0 mi ENE 17.3 mph 23.0 mph N/A   Overcast
4:54 AM 66.9 °F 52.0 °F 59% 29.85 in 10.0 mi ENE 13.8 mph - N/A   Partly Cloudy
5:54 AM 66.0 °F 54.0 °F 65% 29.86 in 10.0 mi ENE 12.7 mph - N/A   Mostly Cloudy
6:54 AM 66.9 °F 55.0 °F 66% 29.87 in 10.0 mi ENE 12.7 mph - N/A   Mostly Cloudy
7:54 AM 68.0 °F 57.0 °F 68% 29.87 in 10.0 mi ENE 12.7 mph - N/A   Mostly Cloudy
8:54 AM 71.1 °F 60.1 °F 68% 29.88 in 10.0 mi East 13.8 mph - N/A   Mostly Cloudy
9:54 AM 75.0 °F 62.1 °F 64% 29.88 in 10.0 mi East 20.7 mph 29.9 mph N/A   Mostly Cloudy
10:54 AM 75.0 °F 63.0 °F 66% 29.87 in 10.0 mi East 15.0 mph - N/A   Mostly Cloudy
11:54 AM 77.0 °F 64.0 °F 64% 29.87 in 10.0 mi East 15.0 mph - N/A   Overcast
12:54 PM 75.9 °F 63.0 °F 64% 29.88 in 10.0 mi East 17.3 mph 31.1 mph N/A   Mostly Cloudy
1:54 PM 75.9 °F 64.0 °F 67% 29.88 in 10.0 mi East 15.0 mph - 0.00 in   Overcast
2:54 PM 78.1 °F 64.0 °F 62% 29.87 in 10.0 mi East 18.4 mph 24.2 mph N/A   Overcast
3:54 PM 78.1 °F 64.0 °F 62% 29.86 in 10.0 mi East 15.0 mph - N/A   Overcast
4:54 PM 78.1 °F 64.9 °F 64% 29.86 in 10.0 mi East 18.4 mph - N/A   Overcast
5:54 PM 77.0 °F 64.0 °F 64% 29.87 in 10.0 mi East 15.0 mph 24.2 mph N/A   Overcast
6:54 PM 75.9 °F 64.0 °F 67% 29.87 in 10.0 mi East 13.8 mph - N/A   Overcast
7:54 PM 75.0 °F 63.0 °F 66% 29.87 in 10.0 mi East 15.0 mph - N/A   Overcast
8:54 PM 73.9 °F 63.0 °F 68% 29.88 in 10.0 mi East 15.0 mph - N/A   Overcast
9:29 PM 72.0 °F 64.0 °F 76% 29.90 in 10.0 mi East 16.1 mph 27.6 mph 0.00 in Rain Light Rain
9:54 PM 72.0 °F 64.0 °F 76% 29.88 in 10.0 mi East 17.3 mph 24.2 mph 0.00 in   Overcast
10:11 PM 72.0 °F 64.0 °F 76% 29.90 in 10.0 mi East 11.5 mph 25.3 mph N/A   Overcast
10:54 PM 72.0 °F 63.0 °F 73% 29.88 in 10.0 mi ENE 12.7 mph - N/A   Overcast
11:54 PM 72.0 °F 63.0 °F 73% 29.89 in 10.0 mi East 12.7 mph - N/A   Overcast